KQ4KX Weather Reports


Display with metric or nautical units.
time (UTC)temp
F
wind
direction
speed
MPH
gust
MPH
rain 1hr
in
rain 24hr
in
rain mn
in
humidity
%
barometer
mb
20260902230433 80 60 0.0 1.0 0.00 0.00 0.00 90 1014.2
20260902225934 80 89 0.0 1.0 0.00 0.00 0.00 90 1014.1
20260902224904 80 90 1.0 3.0 0.00 0.00 0.00 90 1013.7
20260902224628 80 78 1.0 2.0 0.00 0.00 0.00 90 1013.6
20260902224405 80 78 1.0 2.0 0.00 0.00 0.00 90 1013.6
20260902223708 80 44 1.0 3.0 0.00 0.00 0.00 90 1014.0
20260902223334 80 44 1.0 3.0 0.00 0.00 0.00 90 1014.0
20260902223151 80 15 1.0 3.0 0.00 0.00 0.00 90 1014.3
20260902222834 80 15 1.0 3.0 0.00 0.00 0.00 90 1014.3
20260902220805 81 75 2.0 7.0 0.00 0.00 0.00 92 1014.1
20260902220037 81 44 2.0 3.0 0.00 0.00 0.00 92 1013.9
20260902215734 81 44 2.0 3.0 0.00 0.00 0.00 92 1013.9
20260902215234 82 42 2.0 3.0 0.00 0.00 0.00 92 1013.6
20260902215121 82 34 2.0 3.0 0.00 0.00 0.00 90 1013.7
20260902214733 82 34 2.0 3.0 0.00 0.00 0.00 90 1013.7
20260902214234 82 29 2.0 5.0 0.00 0.00 0.00 90 1013.8
20260902212733 82 28 3.0 8.0 0.00 0.00 0.00 91 1013.3
20260902212328 82 33 2.0 8.0 0.00 0.00 0.00 90 1013.4
20260902212203 82 33 2.0 8.0 0.00 0.00 0.00 90 1013.4
20260902211103 81 345 3.0 5.0 0.00 0.00 0.00 91 1013.9
20260902205003 82 331 3.0 7.0 0.00 0.00 0.00 85 1014.3
20260902204700 82 326 4.0 8.0 0.00 0.00 0.00 85 1014.0
20260902204433 82 326 4.0 8.0 0.00 0.00 0.00 85 1014.0
20260902203658 84 352 3.0 6.0 0.00 0.00 0.00 82 1013.6
20260902203334 84 352 3.0 6.0 0.00 0.00 0.00 82 1013.6
20260902203117 85 353 3.0 5.0 0.00 0.00 0.00 83 1013.9
20260902202833 85 353 3.0 5.0 0.00 0.00 0.00 83 1013.9
20260902202333 86 4 3.0 9.0 0.00 0.00 0.00 83 1013.9
20260902201011 88 82 7.0 13.0 0.00 0.00 0.00 79 1013.6
20260902200734 88 82 7.0 13.0 0.00 0.00 0.00 79 1013.6
20260902195633 91 94 6.0 16.0 0.00 0.00 0.00 75 1013.6
20260902195437 93 102 3.0 10.0 0.00 0.00 0.00 71 1013.6
20260902195133 93 102 3.0 10.0 0.00 0.00 0.00 71 1013.6
20260902194826 94 108 2.0 6.0 0.00 0.00 0.00 71 1013.6
20260902194633 94 108 2.0 6.0 0.00 0.00 0.00 71 1013.6
20260902194133 93 94 2.0 4.0 0.00 0.00 0.00 72 1013.6
20260902193816 94 72 1.0 3.0 0.00 0.00 0.00 69 1013.6
20260902193633 94 72 1.0 3.0 0.00 0.00 0.00 69 1013.6
20260902193103 94 69 2.0 4.0 0.00 0.00 0.00 70 1013.7
20260902190003 93 46 2.0 4.0 0.00 0.00 0.00 72 1014.2
20260902185003 93 91 3.0 6.0 0.00 0.00 0.00 73 1014.4
20260902184003 92 3 1.0 3.0 0.00 0.00 0.00 71 1014.6
20260902182933 91 87 2.0 4.0 0.00 0.00 0.00 75 1014.7
20260902182806 91 88 2.0 4.0 0.00 0.00 0.00 73 1014.8
20260902182433 91 88 2.0 4.0 0.00 0.00 0.00 73 1014.8
20260902181403 90 89 2.0 6.0 0.00 0.00 0.00 76 1015.0
20260902181211 89 89 2.0 6.0 0.00 0.00 0.00 77 1015.0
20260902180903 89 89 2.0 6.0 0.00 0.00 0.00 77 1015.0
20260902180333 89 82 2.0 4.0 0.00 0.00 0.00 77 1015.0
20260902180218 89 79 1.0 4.0 0.00 0.00 0.00 78 1015.1
20260902175833 89 79 1.0 4.0 0.00 0.00 0.00 78 1015.1
20260902170003 90 77 2.0 7.0 0.00 0.00 0.00 75 1015.8
20260902165503 90 64 2.0 4.0 0.00 0.00 0.00 74 1015.8
20260902165003 91 55 2.0 4.0 0.00 0.00 0.00 75 1015.9
20260902164503 91 28 2.0 4.0 0.00 0.00 0.00 76 1015.8
20260902163933 91 24 2.0 5.0 0.00 0.00 0.00 78 1016.0
20260902163405 91 45 2.0 5.0 0.00 0.00 0.00 77 1016.0
20260902163300 90 63 2.0 5.0 0.00 0.00 0.00 80 1016.1
20260902162903 90 63 2.0 5.0 0.00 0.00 0.00 80 1016.1
20260902161903 89 79 3.0 7.0 0.00 0.00 0.00 81 1016.3
20260902160903 88 18 2.0 5.0 0.00 0.00 0.00 81 1016.5
20260902160210 88 13 3.0 4.0 0.00 0.00 0.00 83 1016.5
20260902155903 88 13 3.0 4.0 0.00 0.00 0.00 83 1016.5
20260902155404 88 18 2.0 4.0 0.00 0.00 0.00 82 1016.5
20260902155144 87 21 2.0 3.0 0.00 0.00 0.00 84 1016.6
20260902154833 87 21 2.0 3.0 0.00 0.00 0.00 84 1016.6
20260902154333 87 51 2.0 3.0 0.00 0.00 0.00 81 1016.8
20260902152515 88 28 2.0 4.0 0.00 0.00 0.00 83 1016.9
20260902152233 88 28 2.0 4.0 0.00 0.00 0.00 83 1016.9
20260902152015 88 27 2.0 4.0 0.00 0.00 0.00 83 1016.9
20260902151733 88 27 2.0 4.0 0.00 0.00 0.00 83 1016.9
20260902145633 86 24 2.0 4.0 0.00 0.00 0.00 87 1016.8
20260902144633 86 57 2.0 4.0 0.00 0.00 0.00 87 1016.8
20260902143634 84 51 2.0 6.0 0.00 0.00 0.00 90 1016.6
20260902141817 84 49 2.0 3.0 0.00 0.00 0.00 92 1016.6
20260902141604 84 49 2.0 3.0 0.00 0.00 0.00 92 1016.6
20260902141103 84 32 2.0 3.0 0.00 0.00 0.00 92 1016.7
20260902140003 83 70 2.0 6.0 0.00 0.00 0.00 93 1016.6
20260902135759 82 76 2.0 6.0 0.00 0.00 0.00 93 1016.7
20260902135434 82 76 2.0 6.0 0.00 0.00 0.00 93 1016.7
20260902135216 82 62 2.0 4.0 0.00 0.00 0.00 94 1016.6
20260902134933 82 62 2.0 4.0 0.00 0.00 0.00 94 1016.6
20260902133833 82 41 2.0 4.0 0.00 0.00 0.00 95 1016.6
20260902133333 82 38 2.0 4.0 0.00 0.00 0.00 95 1016.7
20260902132834 82 27 2.0 3.0 0.00 0.00 0.00 95 1016.8
20260902131948 81 32 2.0 4.0 0.00 0.00 0.00 96 1016.7
20260902131734 81 32 2.0 4.0 0.00 0.00 0.00 96 1016.7
20260902131235 81 24 2.0 3.0 0.00 0.00 0.00 97 1016.6
20260902125633 80 23 2.0 4.0 0.00 0.00 0.00 98 1016.6
20260902125103 80 29 2.0 4.0 0.00 0.00 0.00 98 1016.6
20260902124604 80 21 2.0 4.0 0.00 0.00 0.00 98 1016.6
20260902124331 79 21 2.0 3.0 0.00 0.00 0.00 99 1016.6
20260902124033 79 21 2.0 3.0 0.00 0.00 0.00 99 1016.6
20260902123533 79 24 2.0 3.0 0.00 0.00 0.00 99 1016.7
20260902123004 79 21 2.0 3.0 0.00 0.00 0.00 100 1016.8
20260902122710 79 18 2.0 3.0 0.00 0.00 0.00 100 1016.7
20260902122433 79 18 2.0 3.0 0.00 0.00 0.00 100 1016.7
20260902121933 78 20 1.0 3.0 0.00 0.00 0.00 100 1016.7
20260902121144 78 14 2.0 3.0 0.00 0.00 0.00 100 1016.6
20260902120905 78 14 2.0 3.0 0.00 0.00 0.00 100 1016.6
20260902114537 78 22 1.0 2.0 0.00 0.00 0.00 100 1016.4
20260902114234 78 22 1.0 2.0 0.00 0.00 0.00 100 1016.4
20260902113953 78 20 1.0 2.0 0.00 0.00 0.00 100 1016.3
20260902113733 78 20 1.0 2.0 0.00 0.00 0.00 100 1016.3
20260902110604 77 21 2.0 3.0 0.00 0.00 0.00 100 1015.8
20260902110339 77 19 2.0 3.0 0.00 0.00 0.00 100 1015.7
20260902105033 77 20 1.0 3.0 0.00 0.00 0.00 100 1015.7
20260902104534 77 9 2.0 3.0 0.00 0.00 0.00 100 1015.7
20260902104004 77 7 1.0 3.0 0.00 0.00 0.00 100 1015.7
20260902103504 77 19 2.0 3.0 0.00 0.00 0.00 100 1015.7
20260902103333 77 21 2.0 3.0 0.00 0.00 0.00 100 1015.6
20260902102934 77 21 2.0 3.0 0.00 0.00 0.00 100 1015.6
20260902102433 77 16 2.0 3.0 0.00 0.00 0.00 100 1015.6
20260902102246 77 10 2.0 3.0 0.00 0.00 0.00 100 1015.6
20260902101935 77 10 2.0 3.0 0.00 0.00 0.00 100 1015.6
20260902101657 78 12 1.0 3.0 0.00 0.00 0.00 100 1015.5
20260902101404 78 12 1.0 3.0 0.00 0.00 0.00 100 1015.5
20260902100528 77 12 1.0 3.0 0.00 0.00 0.00 99 1015.5
20260902100334 77 12 1.0 3.0 0.00 0.00 0.00 99 1015.5
20260902094733 77 23 1.0 2.0 0.00 0.00 0.00 99 1015.5
20260902094234 77 8 1.0 2.0 0.00 0.00 0.00 99 1015.5
20260902093614 92 101 5.0 9.0 0.00 0.33 0.00 70 1017.1
20260902093612 92 104 5.0 9.0 0.00 0.33 0.00 74 1017.2
20260902093133 77 13 1.0 2.0 0.00 0.00 0.00 99 1015.4
20260902092910 77 14 1.0 3.0 0.00 0.00 0.00 99 1015.5
20260902092633 77 14 1.0 3.0 0.00 0.00 0.00 99 1015.5
20260902092103 78 11 1.0 3.0 0.00 0.00 0.00 99 1015.5
20260902091033 77 4 1.0 2.0 0.00 0.00 0.00 99 1015.4
20260902090534 77 5 1.0 2.0 0.00 0.00 0.00 99 1015.3
20260902090139 77 15 1.0 2.0 0.00 0.00 0.00 99 1015.3
20260902090004 77 15 1.0 2.0 0.00 0.00 0.00 99 1015.3
20260902085714 77 25 1.0 3.0 0.00 0.00 0.00 99 1015.2
20260902085433 77 25 1.0 3.0 0.00 0.00 0.00 99 1015.2
20260902083834 77 359 1.0 2.0 0.00 0.00 0.00 98 1015.2
20260902083806 77 1 1.0 2.0 0.00 0.00 0.00 98 1015.3
20260902083333 77 1 1.0 2.0 0.00 0.00 0.00 98 1015.3
20260902082833 77 13 1.0 2.0 0.00 0.00 0.00 98 1015.2
20260902080803 78 9 1.0 2.0 0.00 0.00 0.00 98 1015.2
20260902075548 78 20 1.0 2.0 0.00 0.00 0.00 97 1015.2
20260902075233 78 20 1.0 2.0 0.00 0.00 0.00 97 1015.2
20260902074954 78 31 0.0 2.0 0.00 0.00 0.00 97 1015.3
20260902074733 78 31 0.0 2.0 0.00 0.00 0.00 97 1015.3
20260902072133 78 9 1.0 2.0 0.00 0.00 0.00 98 1015.3
20260902071833 78 27 1.0 2.0 0.00 0.00 0.00 98 1015.4
20260902071633 78 27 1.0 2.0 0.00 0.00 0.00 98 1015.4
20260902071026 78 54 1.0 2.0 0.00 0.00 0.00 98 1015.4
20260902070634 78 54 1.0 2.0 0.00 0.00 0.00 98 1015.4
20260902065913 78 57 1.0 2.0 0.00 0.00 0.00 97 1015.4
20260902065603 78 57 1.0 2.0 0.00 0.00 0.00 97 1015.4
20260902065033 78 57 1.0 2.0 0.00 0.00 0.00 97 1015.5
20260902064533 78 57 1.0 2.0 0.00 0.00 0.00 97 1015.5
20260902064033 78 57 0.0 1.0 0.00 0.00 0.00 97 1015.6
20260902063533 78 57 0.0 1.0 0.00 0.00 0.00 97 1015.6
20260902063003 78 57 0.0 1.0 0.00 0.00 0.00 97 1015.7
20260902062706 78 57 0.0 1.0 0.00 0.00 0.00 97 1015.7
20260902062433 78 57 0.0 1.0 0.00 0.00 0.00 97 1015.7
20260902061933 78 57 0.0 1.0 0.00 0.00 0.00 97 1015.6
20260902061223 78 57 0.0 1.0 0.00 0.00 0.00 97 1015.8
20260902060933 78 57 0.0 1.0 0.00 0.00 0.00 97 1015.8
20260902055333 78 0 0.0 0.0 0.00 0.00 0.00 97 1015.9
20260902054805 78 0 0.0 0.0 0.00 0.00 0.00 97 1015.9
20260902054233 78 0 0.0 0.0 0.00 0.00 0.00 96 1015.9
20260902053733 78 0 0.0 0.0 0.00 0.00 0.00 96 1015.8
20260902052419 78 0 0.0 0.0 0.00 0.00 0.00 96 1016.0
20260902052133 78 0 0.0 0.0 0.00 0.00 0.00 96 1016.0
20260902052006 78 0 0.0 0.0 0.00 0.00 0.00 96 1016.0
20260902051633 78 0 0.0 0.0 0.00 0.00 0.00 96 1016.0
20260902051133 78 0 0.0 0.0 0.00 0.00 0.00 96 1016.0
20260902050451 78 0 0.0 0.0 0.00 0.00 0.00 96 1016.0
20260902050133 78 0 0.0 0.0 0.00 0.00 0.00 96 1016.0
20260902045603 78 0 0.0 0.0 0.00 0.00 0.00 96 1016.0
20260902045103 78 0 0.0 0.0 0.00 0.00 0.00 96 1016.0
20260902044603 78 0 0.0 0.0 0.00 0.00 0.00 96 1016.0
20260902044103 79 57 0.0 1.0 0.00 0.00 0.00 96 1016.1
20260902043533 79 57 0.0 1.0 0.00 0.00 0.00 95 1016.1
20260902043033 79 57 0.0 1.0 0.00 0.00 0.00 95 1016.2
20260902042818 79 0 0.0 0.0 0.00 0.00 0.00 95 1016.1
20260902042503 79 0 0.0 0.0 0.00 0.00 0.00 95 1016.1
20260902042356 79 0 0.0 0.0 0.00 0.00 0.00 94 1016.3
20260902041933 79 0 0.0 0.0 0.00 0.00 0.00 94 1016.3
20260902041744 80 0 0.0 1.0 0.00 0.00 0.00 94 1016.5
20260902041433 80 0 0.0 1.0 0.00 0.00 0.00 94 1016.5
20260902040333 80 57 0.0 1.0 0.00 0.00 0.00 93 1016.3
20260902033733 80 55 1.0 2.0 0.00 0.00 0.00 93 1016.6
20260902033233 80 55 0.0 2.0 0.00 0.00 0.00 93 1016.7
20260902032733 80 55 0.0 1.0 0.00 0.00 0.00 92 1016.6
20260902031903 81 55 0.0 1.0 0.00 0.00 0.00 91 1016.7
20260902031633 81 55 0.0 1.0 0.00 0.00 0.00 91 1016.7
20260902031133 81 56 0.0 2.0 0.00 0.00 0.00 91 1016.7
20260902030603 81 70 1.0 2.0 0.00 0.00 0.00 91 1016.7
20260902030326 81 79 2.0 3.0 0.00 0.00 0.00 91 1016.7
20260902030103 81 79 2.0 3.0 0.00 0.00 0.00 91 1016.7
20260902025533 81 81 2.0 6.0 0.00 0.00 0.00 91 1016.7
20260902025215 81 85 2.0 6.0 0.00 0.00 0.00 90 1016.8
20260902025003 81 85 2.0 6.0 0.00 0.00 0.00 90 1016.8
20260902024810 81 90 3.0 7.0 0.00 0.00 0.00 90 1016.9
20260902024433 81 90 3.0 7.0 0.00 0.00 0.00 90 1016.9
20260902023933 81 89 3.0 7.0 0.00 0.00 0.00 90 1016.9
20260902023721 82 89 3.0 6.0 0.00 0.00 0.00 90 1016.8
20260902023403 82 89 3.0 6.0 0.00 0.00 0.00 90 1016.8
20260902022333 82 82 2.0 8.0 0.00 0.00 0.00 89 1016.7
20260902021233 82 84 4.0 9.0 0.00 0.00 0.00 89 1016.5
20260902020133 82 86 4.0 9.0 0.00 0.00 0.00 89 1016.5
20260902015603 82 91 5.0 9.0 0.00 0.00 0.00 89 1016.5
20260902015033 82 96 6.0 10.0 0.00 0.00 0.00 89 1016.3
20260902014033 82 96 7.0 11.0 0.00 0.00 0.00 89 1016.4
20260902013533 82 93 5.0 11.0 0.00 0.00 0.00 90 1016.5
20260902013003 81 91 5.0 9.0 0.00 0.00 0.00 91 1016.4
20260902012503 81 94 5.0 9.0 0.00 0.00 0.00 91 1016.5
20260902011933 81 90 4.0 9.0 0.00 0.00 0.00 92 1016.4
20260902011433 81 90 3.0 8.0 0.00 0.00 0.00 92 1016.4
20260902005833 81 65 1.0 2.0 0.00 0.00 0.00 93 1016.4
20260902005333 81 65 1.0 2.0 0.00 0.00 0.00 92 1016.4
20260902004833 81 71 1.0 2.0 0.00 0.00 0.00 92 1016.4
20260902003607 81 58 1.0 2.0 0.00 0.00 0.00 92 1016.2
20260902003233 81 58 1.0 2.0 0.00 0.00 0.00 92 1016.2
20260902002733 81 48 1.0 2.0 0.00 0.00 0.00 91 1016.3
20260902002233 81 48 1.0 2.0 0.00 0.00 0.00 90 1016.2
20260902001623 81 63 1.0 2.0 0.00 0.00 0.00 90 1016.1
20260902001233 81 63 1.0 2.0 0.00 0.00 0.00 90 1016.1
20260902000234 81 77 1.0 2.0 0.00 0.00 0.00 90 1016.1
20260901232633 82 53 2.0 3.0 0.00 0.00 0.00 87 1015.8
20260901232133 82 50 2.0 3.0 0.00 0.00 0.00 87 1015.9
20260901231103 83 59 1.0 2.0 0.00 0.00 0.00 86 1015.7